Flag for United Kingdom Weather past 2 weeks in Gloucester, England, United Kingdom

Now
59 °F

Passing clouds.


Feels Like: 58 °F
Forecast: 53 / 75 °F
Wind: 8 mph from Southwest

Location: Staverton Private

Current Time: Aug 1, 2015 at 9:20:54 AM

Latest Report: Aug 1, 2015 at 8:50 AM


Visibility: N/A

Pressure: 29.98 "Hg

Humidity: 82%

Dew point: 54 °F

Location of GloucesterLocation

Historic Weather in Gloucester — Graph

°F

Gloucester temperature yesterday

Maximum temperature yesterday: 70 °F (at 3:50 PM)
Minimum temperature yesterday: 52 °F (at 8:20 AM)
Average temperature yesterday: 65 °F

Past Weeks' High & Low Weather Summary

 TemperatureHumidityPressure
High75 °F (Jul 20, 2:50 PM)100% (Jul 24, 4:20 PM)30.12 "Hg (Jul 24, 4:20 PM)
Low52 °F (Jul 29, 6:50 AM)33% (Jul 19, 4:20 PM)29.39 "Hg (Jul 26, 5:50 PM)
Average64 °F67%29.86 "Hg
* Reported Jul 17 8:20 AM — Aug 1 8:20 AM, Gloucester, Weather by CustomWeather, © 2015

Note: Actual official high and low records may vary slightly from our data, if they occured in-between our weather recording intervals... More about our weather records

Advertising

Gloucester weather history for previous 24 hours

 ConditionsComfort  
Time TempWeatherWind HumidityBarometerVisibility
8:20 AM
Sat, Aug 1
59 °FPassing clouds.6 mph77%29.98 "HgN/A
7:20 PM
Fri, Jul 31
66 °FSunny.9 mph46%29.98 "Hg10 mi
6:50 PM68 °FPassing clouds.8 mph40%29.98 "HgN/A
6:20 PM68 °FPassing clouds.10 mph46%29.98 "HgN/A
5:50 PM68 °FPassing clouds.9 mph43%29.98 "HgN/A
5:20 PM68 °FPassing clouds.8 mph43%30.01 "HgN/A
4:20 PM70 °FPassing clouds.10 mph40%30.01 "HgN/A
3:50 PM70 °FPassing clouds.8 mph43%30.01 "HgN/A
3:20 PM68 °FPassing clouds.7 mph49%30.04 "HgN/A
2:50 PM68 °FPassing clouds.7 mph46%30.04 "HgN/A
1:50 PM66 °FPassing clouds.8 mph46%30.04 "HgN/A
1:20 PM68 °FPassing clouds.6 mph43%30.07 "HgN/A
12:50 PM66 °FPassing clouds.6 mph46%30.07 "HgN/A
12:20 PM66 °FPassing clouds.6 mph46%30.07 "HgN/A
11:50 AM66 °FPassing clouds.2 mph46%30.07 "HgN/A
11:20 AM64 °FPassing clouds.No wind56%30.09 "HgN/A
10:50 AM63 °FPassing clouds.No wind56%30.09 "HgN/A
10:20 AM61 °FPassing clouds.No wind59%30.09 "HgN/A
9:50 AM59 °FSunny.No wind63%30.09 "Hg10 mi
9:20 AM57 °FSunny.No wind67%30.12 "Hg10 mi
Weather by CustomWeather, © 2015

See weather overviewHow to use our weather pages